World > North America > United States > Texas

Hourly Stewart, TX Regional Weather

Feedback E-mail the Weather

Quick WX

Stewart, TX Weather Maps

°F °C°F °C
Stewart Weather Map
UTC Time: 6/29/2022, 04:29
Your Time:

Stewart, TX Regional Weather

Expires:202206290500;;365873
ASUS44 KFWD 290415
RWRTX 
NORTH TEXAS HOURLY WEATHER ROUNDUP
NATIONAL WEATHER SERVICE FORT WORTH TX
1100 PM CDT TUE JUN 28 2022

NOTE: "FAIR" INDICATES FEW OR NO CLOUDS BELOW 12,000 FEET WITH NO
SIGNIFICANT WEATHER AND/OR OBSTRUCTIONS TO VISIBILITY.


TXZ095>097-106>112-122>126-135>138-148>153-164>167-290500-
EAST TEXAS
  
CITY           SKY/WX    TMP DP  RH WIND       PRES   REMARKS
PARIS          FAIR      75  60  59 E8        30.16R                  
SULPHUR SPRNGS FAIR      76  58  53 CALM      30.17R                  
MOUNT PLEASANT FAIR      73  61  66 NE3       30.14R                  
GILMER         FAIR      75  55  48 NE3       30.14S                  
MINEOLA        FAIR      72  57  60 CALM      30.14R                  
TYLER          FAIR      79  56  45 NE6       30.12R                  
LONGVIEW       FAIR      77  56  48 NE6       30.12R                  
MARSHALL       FAIR      73  55  53 NE3       30.15R                  
ATHENS         FAIR      79  54  41 E3        30.10R                  
PALESTINE      FAIR      81  52  36 NE7       30.09S                  
JACKSONVILLE   FAIR      77  56  47 NE6       30.14R                  
HENDERSON      FAIR      80  49  33 NE5       30.13S                  
CENTER         FAIR      79  55  44 NE3       30.12R                  
NACOGDOCHES    FAIR      79  53  40 NE3       30.11R                  
LUFKIN         FAIR      82  54  37 NE6       30.09R                  
$$

SUPPLEMENTAL OBSERVATIONS (NWS FORT WORTH AREA)
  
CITY           SKY/WX    TMP DP  RH WIND       PRES   REMARKS
POSSUM KINGDOM   N/A     72  64  78 E3          N/A                   
GRANBURY         N/A     79  59  50 N1G9        N/A                   
COMANCHE         N/A     75  61  60 NW5         N/A                   
MCGREGOR         N/A     75  55  50 CALM        N/A                   
TEMPLE           N/A     79  55  44 E2          N/A                   
LAKE LIMESTONE   N/A     79  50  36 NE5         N/A                   
PALESTINE        N/A     73  57  56 CALM        N/A                   
$$

SUPPLEMENTAL OBSERVATIONS (NWS NORMAN AREA)
  
CITY           SKY/WX    TMP DP  RH WIND       PRES   REMARKS
GOODLETT         N/A     74  66  75 SE7       30.20R                  
ODELL            N/A     72  64  76 SE6       30.21R                  
CROWELL          N/A     74  64  71 SE6       30.21R                  
KNOX CITY        N/A     74  67  79 E5        30.19R                  
SEYMOUR          N/A     72  65  80 CALM      30.19R                  
MILLERS CREEK    N/A     72  64  78 NE5         N/A                   
$$

SUPPLEMENTAL OBSERVATIONS (NWS SAN ANGELO AREA)
  
CITY           SKY/WX    TMP DP  RH WIND       PRES   REMARKS
WEINERT          N/A     73  64  73 E6        30.20R                  
HASKELL          N/A     73  65  74 E5        30.19R                  
THROCKMORTON     N/A     71  63  75 E3        30.19R                  
STAMFORD         N/A     76  62  62 E6        30.19S                  
CLYDE            N/A     75  60  60 E5        30.21F                  
HAMBY            N/A     75  61  60 E3          N/A                   
IVIE RESERVOIR   N/A     79  61  53 NE6         N/A                   
COLORADO BEND    N/A     75  66  73 SW1         N/A                   
$$

SUPPLEMENTAL OBSERVATIONS (NWS SHREVEPORT AREA)
  
CITY           SKY/WX    TMP DP  RH WIND       PRES   REMARKS
TEXARKANA        N/A     66  63  88 CALM        N/A                   
LINDEN           N/A     70  59  68 CALM        N/A                   
CADDO LAKE       N/A     66  59  77 CALM        N/A                   
N SABINE NF      N/A     72  57  60 MISG        N/A                   
$$

SUPPLEMENTAL OBSERVATIONS ARE A COLLECTION OF AUTOMATED INSTRUMENTS
THAT ARE MAINTAINED BY A VARIETY OF FEDERAL AND STATE AGENCIES. 
CERTAIN ELEMENTS...SUCH AS HUMIDITY VALUES AND SUSTAINED WIND 
SPEEDS...MAY BE APPROXIMATED.

  

SKY/WX - Weather  TMP - Temperature  DP - Dew Point  RH - Humidity
WIND - Wind Direction/Speed PRES - Barometric Pressure VSB - Visibility
WCI - Wind Chill Index E13G22 Wind - East Wind 13 mph/Gusts of 22 mph

Trending Headlines

Stewart Radar Loop



Stewart Quick Facts


National Two Day Weather Forecast


E-mail the Stewart Weather Forecast

Voice your opinion or tell us about page issues...